Hourly Data Report for October 29, 2016

All times are specified in Local Standard Time (LST). Add 1 hour to adjust for Daylight Saving Time where and when it is observed.

TORONTO INTL A
ONTARIO

43°40'36.000" N
79°37'50.000" W
173.40 m
6158731
71624
YYZ

Download Data

Hourly Data (October 2016)
Hourly Data Report for October 29, 2016
Temp Definition
°C
Dew Point Temp Definition
°C
Rel Hum Definition
%
Wind Dir Definition
10's deg

Wind Spd Definition
km/h
Visibility Definition
km
Stn Press Definition
kPa
Hmdx Definition


Wind Chill Definition


Weather Definition


TIME
00:00 Legend Double Dagger 9.2 6.3 82 15 9 24.1 99.61     LegendNANA
01:00 Legend Double Dagger 10.5 6.5 76 16 14 24.1 99.54     Cloudy
02:00 Legend Double Dagger 10.9 6.9 76 16 21 24.1 99.38     LegendNANA
03:00 Legend Double Dagger 11.2 7.2 76 18 19 24.1 99.19     LegendNANA
04:00 Legend Double Dagger 10.9 7.6 80 22 9 24.1 99.06     Mostly Cloudy
05:00 Legend Double Dagger 12.1 8.6 79 23 25 24.1 98.99     LegendNANA
06:00 Legend Double Dagger 13.2 9.5 78 23 22 24.1 98.91     LegendNANA
07:00 Legend Double Dagger 14.7 10.6 76 23 22 24.1 98.89     Cloudy
08:00 Legend Double Dagger 15.2 11.2 77 24 28 19.3 98.88     LegendNANA
09:00 Legend Double Dagger 15.6 11.6 77 24 31 19.3 98.84     LegendNANA
10:00 Legend Double Dagger 16.5 12.3 76 24 25 19.3 98.80     Cloudy
11:00 Legend Double Dagger 17.4 13.2 76 24 20 19.3 98.79     LegendNANA
12:00 Legend Double Dagger 18.2 13.8 75 25 34 19.3 98.73     LegendNANA
13:00 Legend Double Dagger 19.6 14.5 72 27 38 24.1 98.72     Mostly Cloudy
14:00 Legend Double Dagger 19.2 14.3 73 27 32 24.1 98.76     LegendNANA
15:00 Legend Double Dagger 19.2 14.1 72 27 33 24.1 98.78     LegendNANA
16:00 Legend Double Dagger 19.0 14.3 74 27 23 24.1 98.85     Mostly Cloudy
17:00 Legend Double Dagger 17.0 12.8 76 31 35 24.1 98.98     LegendNANA
18:00 Legend Double Dagger 14.0 10.6 80 31 28 24.1 99.09     LegendNANA
19:00 Legend Double Dagger 13.4 9.9 79 32 24 24.1 99.21     Mostly Cloudy
20:00 Legend Double Dagger 12.9 8.4 74 31 23 24.1 99.24     LegendNANA
21:00 Legend Double Dagger 12.3 8.0 75 31 17 24.1 99.29     LegendNANA
22:00 Legend Double Dagger 11.9 7.7 75 30 20 24.1 99.29     Cloudy
23:00 Legend Double Dagger 11.2 7.5 78 29 13 24.1 99.30     LegendNANA

Notes on Data Quality.

Legend

  • E = Estimated
  • M = Missing
  • NA = Not Available
  • ‡ = Partner data that is not subject to review by the National Climate Archives
Date modified: